Regional Weather Roundup
Issued by NWS

Home | Current Version | Previous Version | Graphics & Text | Print | Product List | Glossary On
Versions: 1 2 3 4 5 6 7 8 9 10 11 12 13 14 15 16 17 18 19 20 21 22 23 24 25 26 27 28 29 30 31 32 33 34 35 36 37 38 39 40 41 42 43 44 45 46 47 48 49 50
000
ASUS43 KBIS 190902
RWRND

NORTH DAKOTA REGIONAL WEATHER ROUNDUP
NATIONAL WEATHER SERVICE BISMARCK ND
300 AM CST FRI JAN 19 2018

NOTE: "FAIR" INDICATES FEW OR NO CLOUDS BELOW 12,000 FEET WITH NO
SIGNIFICANT WEATHER AND/OR OBSTRUCTIONS TO VISIBILITY.


NDZ001>003-009>011-017-191000-
NORTHWEST NORTH DAKOTA

CITY           SKY/WX    TMP DP  RH WIND       PRES   REMARKS
WILLISTON      CLOUDY    54  31  41 SW9       29.55F
MINOT          PTCLDY    38  30  73 SW15      29.50R
MINOT AFB      CLOUDY    39  31  73 SW17      29.48R
$$

NDZ018>021-031>035-040>046-191000-
SOUTHWEST NORTH DAKOTA

CITY           SKY/WX    TMP DP  RH WIND       PRES   REMARKS
BISMARCK       CLOUDY    27  24  89 CALM      29.56F
DICKINSON      CLOUDY    34  26  72 W9        29.56S
GARRISON         N/A     34  27  75 VRB5      29.53F
HETTINGER ARPT CLOUDY    31  25  78 NW8       29.59F
$$

NDZ004>008-012>016-024-026-027-054-191000-
NORTHEAST NORTH DAKOTA

CITY           SKY/WX    TMP DP  RH WIND       PRES   REMARKS
GRAND FORKS    FAIR      30  26  85 S7        29.48S
GRND FRKS AFB  FAIR      38  29  70 W15       29.47S
DEVILS LAKE    FAIR      30  26  85 SW10      29.50S
$$

NDZ022-023-025-028>030-036>039-047>053-191000-
SOUTHEAST NORTH DAKOTA

CITY           SKY/WX    TMP DP  RH WIND       PRES   REMARKS
FARGO          FAIR      31  26  82 S12         N/A
JAMESTOWN      CLOUDY    38  29  70 W9        29.52F
$$





USA.gov is the U.S. government's official web portal to all federal, state and local government web resources and services.